Regional Weather Roundup
Issued by NWS

Home | Current Version | Previous Version | Text Only | Print | Product List | Glossary Off
Versions: 1 2 3 4 5 6 7 8 9 10 11 12 13 14 15 16 17 18 19 20 21 22 23 24 25 26 27 28 29 30 31 32 33 34 35 36 37 38 39 40 41 42 43 44 45 46 47 48 49 50

000
ASUS43 KMPX 250101
RWRMN
WEATHER ROUNDUP FOR MINNESOTA
NATIONAL WEATHER SERVICE TWIN CITIES/CHANHASSEN MN
800 PM CDT THU JUL 24 2014


NOTE: "FAIR" INDICATES FEW OR NO CLOUDS BELOW 12,000 FEET WITH NO
SIGNIFICANT WEATHER AND/OR OBSTRUCTIONS TO VISIBILITY. N/A MEANS
CURRENT SKY AND/OR WEATHER CONDITIONS ARE NOT AVAILABLE.

MNZ060>063-068>070-250200-
   Twin Cities Metro

CITY           SKY/WX    TMP DP  RH WIND       PRES   REMARKS
TWIN CITIES    PTCLDY    77  59  53 SW9       29.92S
ST PAUL        CLOUDY    75  61  61 S8        29.92F
CRYSTAL        MOCLDY    78  60  53 SW9       29.91S
LAKEVILLE      CLEAR     73  61  64 CALM      29.93R
EDEN PRAIRIE   CLEAR     75  61  61 SW6       29.91S
SOUTH ST PAUL  PTCLDY    77  59  54 S5        29.92F
LAKE ELMO      FAIR      73  61  64 SE3       29.94S
$$
MNZ001>005-007-008-013>017-022>024-027-028-250200-
   Northwest Minnesota

CITY           SKY/WX    TMP DP  RH WIND       PRES   REMARKS
BEMIDJI        PTCLDY    72  56  57 SE5       29.93F
HALLOCK        MOSUNNY   73  64  73 SE7       29.82F
ROSEAU         CLOUDY    70  63  78 E5        29.90F
WARROAD        CLOUDY    68  64  88 SE3       29.92F
THIEF RVR FALL CLOUDY    73  61  64 SE7       29.89F
CROOKSTON      PTSUNNY   72  63  73 S9        29.88F
FOSSTON        PTCLDY    72  57  60 CALM      29.93S
DETROIT LAKES  PTCLDY    72  61  68 SE3       29.94R
MOORHEAD       MOCLDY    73  64  73 S3        29.93R
PARK RAPIDS    MOCLDY    73  58  59 S6        29.93R
$$
MNZ006-009>011-018-025>026-250200-
   North Central Minnesota

CITY           SKY/WX    TMP DP  RH WIND       PRES   REMARKS
BAUDETTE       CLOUDY    69  61  75 SW5       29.94S
FLAG ISLAND    MOCLDY    72  59  64 CALM      29.91F
INTL FALLS     MOCLDY    71  58  63 CALM      29.93F
WASKISH        LGT RAIN  66  63  88 CALM      29.93F
BIG FORK       CLOUDY    66  63  88 CALM      29.97F
LONGVILLE      CLEAR     72  63  73 CALM      29.94S
GRAND RAPIDS   CLOUDY    66  59  77 CALM      29.97R
CRANE LAKE     MOCLDY    66  61  82 CALM      29.97S
ORR            CLOUDY    64  57  77 CALM      29.94S
COOK           CLOUDY    70  57  64 CALM      29.98R
$$
MNZ012-019>021-037-250200-
   Northeast Minnesota

CITY           SKY/WX    TMP DP  RH WIND       PRES   REMARKS
DULUTH         PTCLDY    70  59  68 N3        29.97R
ELY            MOCLDY    70  54  56 SW3       29.97R
HIBBING        MOCLDY    67  60  78 CALM      29.98R
EVELETH        MOCLDY    68  55  64 CALM      29.99R
DULUTH HARBOR  MOCLDY    64  57  77 NE6       29.95R
TWO HARBORS    CLOUDY    66  55  68 CALM      29.96R
SILVER BAY     CLOUDY    64  61  88 CALM      29.97R
GRAND MARAIS     N/A     58  52  80 CALM      29.95S
G MARAIS ARPRT PTCLDY    57  52  82 S3        30.00S
$$
MNZ029>031-032-039>041-046>048-054>057-064-250200-
   West Central Minnesota

CITY           SKY/WX    TMP DP  RH WIND       PRES   REMARKS
FERGUS FALLS   PTCLDY    72  59  64 S9        29.90R
WHEATON        CLOUDY    70  61  73 SE9       29.87S
MORRIS         MOCLDY    70  63  78 S6        29.87R
ALEXANDRIA     MOCLDY    70  61  73 SE6       29.92S
ELBOW LAKE     FAIR      69  61  75 SE6       29.89R
WADENA         PTCLDY    72  61  68 CALM      29.92S
GLENWOOD       PTCLDY    72  61  68 SE12      29.90F
APPLETON       PTCLDY    72  61  68 S8        29.85S
BENSON         MOCLDY    70  61  73 SW9       29.87S
ORTONVILLE     CLOUDY    70  63  78 S8        29.85F
MADISON        PTCLDY    72  61  68 S10       29.86S
WILLMAR        FAIR      70  59  68 S7        29.90S
$$
MNZ033>034-036-042>043-049>051-058-059-250200-
   Central Minnesota

CITY           SKY/WX    TMP DP  RH WIND       PRES   REMARKS
ST CLOUD       MOCLDY    75  62  64 SW7       29.92S
SAUK CENTRE    FAIR      69  62  78 SE6       29.91F
PAYNESVILLE    PTCLDY    68  60  75 SE7       29.92S
AITKIN         CLEAR     75  61  60 S3        29.93S
PINE RIVER     PTCLDY    72  59  64 S3        29.97R
BRAINERD       CLOUDY    72  58  61 S5        29.93S
STAPLES        CLOUDY    72  57  60 CALM      29.93S
LONG PRAIRIE   MOCLDY    70  61  73 SE8       29.93S
LITTLE FALLS   CLOUDY    72  59  64 S3        29.93S
LITCHFIELD     CLEAR     72  64  78 CALM      29.92R
BUFFALO        PTCLDY    73  61  64 SW6       29.94S
MAPLE LAKE     PTCLDY    73  63  70 CALM      29.94R
$$
MNZ037-044-045-052-053-250200-
   East Central Minnesota

CITY           SKY/WX    TMP DP  RH WIND       PRES   REMARKS
PRINCETON      CLOUDY    75  61  60 SW3       29.92S
MORA           CLEAR     72  57  60 CALM      29.94S
CAMBRIDGE      PTCLDY    77  61  57 SE3       29.91S
RUSH CITY      CLEAR     75  59  57 S5        29.92F
MOOSE LAKE     CLEAR     73  57  56 CALM      29.93R
HINCKLEY       FAIR      73  61  64 SE5       29.94R
CLOQUET        PTCLDY    72  55  56 CALM      29.97R
MCGREGOR       CLEAR     73  59  60 S3        29.95S
$$
MNZ071>073-080-081-089-090-097-098-250200-
   Southwest Minnesota

CITY           SKY/WX    TMP DP  RH WIND       PRES   REMARKS
MONTEVIDEO     CLOUDY    70  61  73 SW9       29.87S
GRANITE FALLS  CLOUDY    68  59  73 S14G21    29.89S
CANBY          CLOUDY    70  60  70 S7G16     29.87F
MARSHALL       CLOUDY    68  57  68 S13       29.87S
REDWOOD FALLS  CLOUDY    70  60  70 S15G24    29.88S
OLIVIA         MOCLDY    70  61  73 S10       29.88S
PIPESTONE      CLEAR     66  59  77 S15G21    29.88F
WINDOM         PTCLDY    66  57  72 S9G16     29.90S
WORTHINGTON    PTCLDY    66  59  77 S12G17    29.89F
JACKSON        PTCLDY    66  54  63 S10G16    29.90F
TRACY          MOCLDY    67  58  72 S9        29.88S
SLAYTON        PTCLDY    66  59  77 S10       29.89F
$$
MNZ065>067-074>077-082>085-091>093-250200-
   South Central Minnesota

CITY           SKY/WX    TMP DP  RH WIND       PRES   REMARKS
MANKATO        CLEAR     72  57  60 S12G23    29.89F
NEW ULM        PTCLDY    70  63  78 S13       29.89S
ST JAMES       CLEAR     70  61  73 S14G21    29.91F
FAIRMONT       PTCLDY    66  57  72 S10       29.92S
GLENCOE        CLEAR     73  60  64 S7        29.92R
FARIBAULT      PTCLDY    77  55  47 S6        29.93R
OWATONNA       PTCLDY    73  57  56 S15G22    29.90S
WASECA         PTCLDY    72  55  56 S14G20    29.91F
ALBERT LEA     MOCLDY    72  61  68 S12G21    29.91F
$$
MNZ078>079-086>088-094>096-250200-
   Southeast Minnesota

CITY           SKY/WX    TMP DP  RH WIND       PRES   REMARKS
ROCHESTER      CLOUDY    72  59  63 S18G25    29.92F
RED WING       MOCLDY    77  57  50 S6        29.92F
STANTON        PTCLDY    75  59  57 S6        29.92R
DODGE CENTER   MOCLDY    72  61  68 SW13      29.91F
WINONA         CLOUDY    73  59  60 SE5       29.94R
AUSTIN         MOCLDY    72  59  64 S14       29.92F
PRESTON        CLOUDY    71  64  76 S16       29.93F
$$
ABBREVIATIONS USED IN REMARKS
   TC - TEMPERATURES IN CELSIUS
  WCI - WIND CHILL INDEX
   HX - HEAT INDEX
  VSB - VISIBILITY
$$



USA.gov is the U.S. government's official web portal to all federal, state and local government web resources and services.